Terug naar catalogus

CZ-6A DEB

ActiefSSO
NORAD 56620·DEBRIS·🇨🇳 China

Gelanceerd Nov 11, 2022 vanaf Taiyuan Satellite Launch Center

Loading…

Volgende Passages (komende 24 uur)

TLE

VersSource: Space-Track

Epoch: Sep 14, 2026, 08:23 UTC

1 56620U 22151AEU 26257.34956747  .00000584  00000-0  47799-3 0  9993
2 56620  98.9428 210.0564 0154397 231.5027 127.2200 13.88105003176577

Volg CZ-6A DEB in realtime met AllMySat

Download on the App Store